User: anonymous   Login
Location: STAR School
(35.3054°N, 111.2976°W)
Time: 14:11:43
(UTC-07:00)
Language:

PCSat - Orbit

View from above orbital plane
View from above orbital plane
View from above satellite
View from above satellite

Ground track
Ground track

The orbit data is extracted from the following two-line orbital elements,

1 26931U 01043C   19294.78661544 -.00000025  00000-0  22259-4 0  9997
2 26931  67.0529  40.8710 0007471 267.7002  92.3243 14.30555794942860
Epoch (UTC): 21 October 2019 18:52:43
Eccentricity: 0.0007471
inclination: 67.0529°
perigee height: 784 km
apogee height: 795 km
right ascension of ascending node: 40.8710°
argument of perigee: 267.7002°
revolutions per day: 14.30555794
mean anomaly at epoch: 92.3243°
orbit number at epoch: 94286

The dashed part of the orbit path shows where the satellite is in the earth's shadow,  

DLR